Cross City, FL

8:38 AM EST on December 05, 2016 (GMT -0500)
Cross City

Weather History for KCTY - January, 2015

Change the Weather History Date:

Friday, January 30, 2015

  Actual Average Record
Temperature  
Mean Temperature 54 °F 55 °F  
Max Temperature 70 °F 68 °F 82 °F (2002)
Min Temperature 38 °F 42 °F 28 °F (2007)
Degree Days  
Heating Degree Days 11 11  
Month to date heating degree days 292 363  
Since 1 July heating degree days 786 868  
Cooling Degree Days 0 1  
Month to date cooling degree days 16 2  
Year to date cooling degree days 16 2  
Growing Degree Days 4 (Base 50)    
Moisture  
Dew Point 41 °F    
Average Humidity 67    
Maximum Humidity 100    
Minimum Humidity 24    
Precipitation  
Precipitation 0.00 in 0.10 in 0.34 in (2006)
Month to date precipitation 2.94 3.94  
Year to date precipitation 2.94 3.94  
Sea Level Pressure  
Sea Level Pressure 30.20 in    
Wind  
Wind Speed 5 mph (North)    
Max Wind Speed 17 mph    
Max Gust Speed 23 mph    
T = Trace of Precipitation, MM = Missing Value Source: NWS Daily Summary

Daily Weather History Graph

Daily Weather History Graph

Search for Another Location

Airport or City:

Trip Planner

Search our weather history database for the weather conditions in past years. The results will help you decide how hot, cold, wet, or windy it might be!

Date:

Astronomy

Jan. 30, 2015 Rise Set
Actual Time 7:23 AM EST 6:08 PM EST
Civil Twilight 6:58 AM EST 6:33 PM EST
Nautical Twilight 6:29 AM EST 7:02 PM EST
Astronomical Twilight 6:01 AM EST 7:30 PM EST
Moon 2:45 PM EST (1/30) 3:49 AM EST (1/30)
Length of Visible Light 11h 35m
Length of Day
10h 45m
Waxing Gibbous, 84% of the Moon is Illuminated
Jan 30
Waxing Gibbous
Feb 3
Full
Feb 11
Last Quarter
Feb 18
New
Feb 25
First Quarter

Hourly Weather History & Observations

Time (EST) Temp. Windchill Dew Point Humidity Pressure Visibility Wind Dir Wind Speed Gust Speed Precip Events Conditions
12:53 AM 42.1 °F - 39.9 °F 92% 30.21 in - Calm Calm - N/A   Unknown
1:53 AM 41.0 °F - 39.0 °F 93% 30.20 in - Calm Calm - N/A   Unknown
2:53 AM 39.9 °F - 37.9 °F 93% 30.19 in - Calm Calm - N/A   Unknown
3:53 AM 39.9 °F - 37.9 °F 93% 30.17 in - Calm Calm - N/A   Unknown
4:53 AM 41.0 °F - 39.9 °F 96% 30.16 in - Calm Calm - N/A   Unknown
5:53 AM 46.9 °F - 45.0 °F 93% 30.16 in - SW 3.5 mph - N/A   Unknown
6:53 AM 54.0 °F - 53.1 °F 97% 30.16 in - SW 5.8 mph - N/A   Unknown
7:53 AM 55.0 °F - 53.1 °F 93% 30.17 in - Calm Calm - N/A   Unknown
8:53 AM 59.0 °F - 57.0 °F 93% 30.19 in - NW 4.6 mph - N/A   Unknown
9:53 AM 62.1 °F - 55.9 °F 80% 30.21 in - North 9.2 mph - N/A   Unknown
10:53 AM 64.9 °F - 52.0 °F 63% 30.21 in - North 10.4 mph - N/A   Unknown
11:53 AM 66.9 °F - 48.9 °F 52% 30.20 in - NNW 12.7 mph 18.4 mph N/A   Unknown
12:53 PM 66.0 °F - 43.0 °F 43% 30.19 in - North 12.7 mph - N/A   Unknown
1:53 PM 68.0 °F - 43.0 °F 40% 30.17 in - North 9.2 mph - N/A   Unknown
2:53 PM 69.1 °F - 37.0 °F 31% 30.17 in - North 11.5 mph - N/A   Unknown
3:53 PM 68.0 °F - 33.1 °F 27% 30.17 in - NNE 8.1 mph - N/A   Unknown
4:53 PM 66.0 °F - 28.9 °F 25% 30.18 in - NNE 8.1 mph - N/A   Unknown
5:53 PM 60.1 °F - 30.9 °F 33% 30.19 in - North 5.8 mph - N/A   Unknown
6:53 PM 53.1 °F - 35.1 °F 50% 30.22 in - North 8.1 mph - N/A   Unknown
7:53 PM 52.0 °F - 34.0 °F 50% 30.24 in - North 5.8 mph - N/A   Unknown
8:53 PM 45.0 °F 42.6 °F 34.0 °F 65% 30.26 in - North 4.6 mph - N/A   Unknown
9:53 PM 44.1 °F 41.5 °F 34.0 °F 68% 30.28 in - North 4.6 mph - N/A   Unknown
10:53 PM 39.0 °F - 33.1 °F 79% 30.28 in - Calm Calm - 0.01 in   Unknown
11:53 PM 37.9 °F 35.5 °F 33.1 °F 83% 30.28 in - NNE 3.5 mph - N/A   Unknown